TimeEDT,TemperatureF,Dew PointF,Humidity,Sea Level PressureIn,VisibilityMPH,Wind Direction,Wind SpeedMPH,Gust SpeedMPH,PrecipitationIn,Events,Conditions,WindDirDegrees,DateUTC
12:53 AM,79.0,71.1,77,29.99,10.0,WSW,11.5,-,N/A,,Partly Cloudy,240,2013-08-27 04:53:00
1:53 AM,78.1,71.1,79,29.98,10.0,SW,13.8,20.7,N/A,,Mostly Cloudy,230,2013-08-27 05:53:00
2:53 AM,78.1,71.1,79,29.96,10.0,WSW,12.7,-,N/A,,Clear,240,2013-08-27 06:53:00
3:53 AM,79.0,71.1,77,29.95,10.0,WSW,15.0,23.0,N/A,,Scattered Clouds,240,2013-08-27 07:53:00
4:53 AM,78.1,71.1,79,29.94,10.0,WSW,12.7,20.7,N/A,,Mostly Cloudy,240,2013-08-27 08:53:00
5:53 AM,77.0,71.1,82,29.96,9.0,West,6.9,-,N/A,,Mostly Cloudy,280,2013-08-27 09:53:00
6:53 AM,75.0,72.0,90,29.99,6.0,NNW,3.5,-,0.00,Rain,Light Rain,330,2013-08-27 10:53:00
7:53 AM,73.9,72.0,93,29.97,3.0,SSE,3.5,-,0.00,,Partly Cloudy,150,2013-08-27 11:53:00
8:06 AM,73.4,71.6,94,29.99,2.5,SSE,3.5,-,N/A,,Clear,150,2013-08-27 12:06:00
8:20 AM,75.2,71.6,89,29.99,3.0,Calm,Calm,-,N/A,,Clear,0,2013-08-27 12:20:00
8:53 AM,75.0,72.0,90,29.96,3.0,SE,4.6,-,N/A,,Clear,140,2013-08-27 12:53:00
9:53 AM,80.1,73.0,79,29.95,8.0,South,9.2,-,N/A,,Clear,170,2013-08-27 13:53:00
10:53 AM,80.1,73.0,79,29.95,8.0,South,10.4,-,N/A,,Clear,190,2013-08-27 14:53:00
11:53 AM,82.0,72.0,71,29.94,10.0,SSW,11.5,-,N/A,,Clear,200,2013-08-27 15:53:00
12:53 PM,81.0,72.0,74,29.94,10.0,SW,12.7,-,N/A,,Clear,220,2013-08-27 16:53:00
1:53 PM,86.0,71.1,61,29.92,10.0,SW,16.1,21.9,N/A,,Clear,220,2013-08-27 17:53:00
2:53 PM,88.0,71.1,57,29.90,10.0,SSW,15.0,-,N/A,,Clear,210,2013-08-27 18:53:00
3:53 PM,89.1,71.1,55,29.88,10.0,SW,17.3,-,N/A,,Clear,220,2013-08-27 19:53:00
4:53 PM,90.0,71.1,54,29.86,10.0,SW,17.3,25.3,N/A,,Clear,220,2013-08-27 20:53:00
5:53 PM,91.0,69.1,48,29.84,10.0,SSW,17.3,27.6,N/A,,Clear,210,2013-08-27 21:53:00
6:53 PM,88.0,68.0,51,29.83,10.0,SSW,15.0,25.3,N/A,,Mostly Cloudy,210,2013-08-27 22:53:00
7:53 PM,87.1,69.1,55,29.83,10.0,SW,16.1,-,N/A,,Mostly Cloudy,220,2013-08-27 23:53:00
8:53 PM,86.0,70.0,59,29.83,10.0,SW,19.6,26.5,N/A,,Overcast,220,2013-08-28 00:53:00
9:53 PM,82.9,71.1,67,29.83,10.0,SW,20.7,26.5,N/A,,Clear,230,2013-08-28 01:53:00
10:53 PM,82.9,71.1,67,29.81,10.0,WSW,18.4,25.3,N/A,,Overcast,240,2013-08-28 02:53:00
11:53 PM,82.0,71.1,69,29.82,10.0,SW,17.3,27.6,N/A,,Mostly Cloudy,230,2013-08-28 03:53:00